Wind_Speed
19 19 19 19 20 20 22 21 22 33 36 34 33 25 24 23 24 25 24 25 27 25 25 25 22 17 17 23 21 20 28 28 25 26 25 23 21 21
18 19 20 22 23 24 26 27 24 28 36 31 31 28 27 27 26 25 24 27 29 28 26 26 24 22 18 19 21 24 30 28 24 25 27 26 24 20
18 22 21 24 25 23 23 23 22 23 29 34 29 27 28 27 26 24 22 23 22 24 24 23 22 21 18 17 17 22 24 30 33 23 24 28 27 24
20 23 27 26 27 23 23 23 23 23 27 33 32 28 25 25 24 23 21 22 22 21 23 21 20 20 18 17 15 23 23 29 30 33 24 24 28 25
22 28 30 26 25 24 24 25 24 22 22 26 31 27 26 23 20 20 22 23 23 22 23 21 20 20 18 17 15 16 22 21 32 29 26 27 25 27
28 30 30 26 23 24 24 22 22 22 22 24 27 26 22 20 19 19 19 18 19 19 19 20 20 18 18 18 16 13 19 21 25 35 21 29 34 30
27 28 29 29 26 22 19 20 21 23 22 22 23 23 21 19 18 17 18 16 16 17 17 14 12 11 11 13 16 16 16 17 23 28 28 22 17 34
27 28 26 22 18 20 17 15 16 19 21 22 23 23 23 22 19 17 17 17 17 13 12 12 9 10 15 12 13 15 16 11 16 22 24 35 14 13
25 25 21 17 17 16 16 21 22 21 23 25 24 24 23 19 18 18 17 17 20 17 15 18 15 15 13 19 18 15 17 13 13 14 23 21 16 18
23 21 18 17 16 17 22 21 18 18 18 19 20 23 21 21 20 20 20 21 17 17 16 18 15 16 13 16 23 22 17 18 19 19 17 15 16 21
21 17 16 17 17 18 20 20 20 18 17 20 20 20 19 20 20 19 18 17 15 15 12 14 12 12 12 15 18 23 24 22 20 19 20 22 18 17
19 17 18 18 16 18 18 18 18 19 21 19 16 15 13 13 13 15 16 18 19 9 11 12 11 9 6 8 16 22 25 25 26 25 23 21 23 22
19 20 19 19 17 17 15 13 17 21 20 16 14 13 12 12 12 12 11 14 16 21 15 12 10 8 8 5 3 8 17 24 28 28 28 28 27 25
19 21 20 18 18 18 17 16 17 18 16 14 13 13 13 13 12 12 12 13 14 14 12 11 12 10 7 5 5 3 8 10 22 27 27 26 27 28
19 20 20 18 17 17 16 16 15 16 14 13 14 13 13 12 10 11 9 10 10 10 11 12 13 11 10 7 4 4 5 7 9 16 21 20 19 23
18 18 18 17 16 15 15 14 14 14 13 12 13 13 12 12 12 13 11 5 3 4 7 9 11 12 11 9 8 6 7 5 10 13 16 18 18 16
18 17 16 16 16 15 15 15 16 14 11 11 12 13 13 12 12 12 11 11 8 3 1 4 6 7 8 8 6 5 8 9 8 10 13 15 16 16
17 16 15 15 16 16 16 16 16 17 15 12 12 13 13 13 12 11 10 9 9 11 9 2 2 6 7 6 7 5 5 7 8 11 14 14 12 16
16 15 15 14 14 15 15 15 16 16 16 14 13 13 12 12 11 11 10 9 9 8 7 8 6 5 6 5 3 6 7 6 4 10 11 12 12 12
15 14 14 13 13 13 14 14 14 15 15 15 14 13 12 12 11 11 10 10 9 8 7 5 3 2 2 1 2 4 4 3 3 5 5 7 8 11
16 14 14 13 13 13 13 13 14 14 15 15 15 14 13 12 10 9 9 9 10 9 7 5 3 2 2 2 2 3 5 5 5 5 5 4 3 4
16 15 13 13 12 12 12 12 13 13 14 14 13 13 13 12 11 10 10 9 9 9 6 3 1 2 2 3 2 2 4 5 4 3 3 4 4 3
16 15 14 13 12 12 12 12 11 12 12 13 13 13 12 11 11 10 10 9 10 8 5 2 2 3 2 3 3 3 4 5 4 2 2 2 4 4
Wind_Direction
299 300 301 303 300 294 291 295 297 300 298 301 300 297 293 293 285 288 282 283 289 294 301 305 308 311 307 276 261 207 218 210 211 217 218 222 226 229
294 303 303 299 293 289 290 294 292 290 293 296 295 294 292 289 286 285 278 276 285 286 293 296 300 302 303 311 279 260 224 212 212 205 215 213 219 219
290 294 295 296 294 295 295 293 291 291 291 294 294 296 295 293 289 284 272 272 278 289 290 288 290 295 296 294 293 259 254 232 223 208 218 208 213 217
288 291 297 299 299 298 298 296 293 291 290 293 296 296 292 291 287 282 271 265 273 280 286 284 281 284 286 287 297 247 243 238 212 207 227 211 207 210
295 301 302 302 302 301 299 296 294 289 288 289 293 295 295 289 293 283 275 267 269 276 282 282 278 273 271 268 276 273 234 233 227 212 210 207 203 209
304 304 304 303 303 303 298 297 296 292 291 290 290 294 293 294 286 289 281 269 268 272 280 280 279 268 262 255 259 269 229 217 214 207 174 184 186 199
308 308 307 308 306 302 298 297 295 294 293 291 291 293 294 293 289 285 281 283 270 272 275 279 282 260 255 247 251 231 244 213 207 216 215 181 173 174
315 315 316 320 316 311 312 316 317 303 297 292 289 286 290 285 289 282 277 276 280 272 271 270 279 269 244 235 228 219 234 228 210 206 209 226 201 191
321 321 321 321 320 316 317 319 313 307 298 295 290 285 281 285 287 286 279 270 268 266 273 271 275 271 257 243 222 213 201 221 225 211 206 204 198 186
326 325 320 320 319 322 318 315 312 311 307 308 307 286 280 278 276 275 278 286 265 266 262 267 269 268 265 249 242 223 211 201 212 219 229 219 216 216
329 326 323 319 321 320 319 316 316 318 312 306 302 303 288 281 278 277 271 270 269 265 252 253 267 271 266 254 240 238 228 209 209 206 215 218 216 223
333 329 327 327 327 324 322 321 325 322 321 318 315 313 315 307 302 277 264 254 258 270 256 253 268 264 276 265 238 234 233 230 221 211 210 212 216 206
331 334 333 334 331 328 328 326 316 318 325 325 323 317 314 310 305 301 295 259 249 250 249 249 260 245 242 261 228 217 227 226 224 223 223 223 221 223
332 335 336 337 337 335 330 323 322 323 331 332 333 331 328 324 314 303 288 274 268 259 243 237 232 234 230 235 222 227 223 227 221 222 221 222 224 227
334 336 338 338 336 337 337 334 335 334 340 344 344 344 349 348 349 340 316 278 267 260 252 255 255 247 231 228 237 198 187 200 191 204 211 214 219 225
336 339 342 346 345 344 348 353 355 349 347 352 357 356 357 3 7 12 19 18 337 313 253 249 254 242 239 231 232 228 201 173 193 201 210 216 220 221
336 338 341 346 353 357 1 2 5 7 359 355 2 4 4 4 9 14 25 35 39 30 345 218 214 205 221 230 222 217 209 210 207 210 205 215 220 218
334 335 341 346 350 355 358 2 4 6 7 4 360 1 4 3 4 7 8 25 31 40 48 67 176 183 195 215 217 205 199 205 218 227 219 217 222 228
328 331 335 341 345 349 352 358 1 3 4 2 357 354 355 0 2 1 3 1 4 8 22 43 82 158 179 171 202 214 214 225 218 212 216 223 221 219
318 324 328 331 337 340 343 348 354 359 1 1 359 357 355 351 352 359 2 360 353 350 353 357 26 84 68 72 172 216 210 228 208 190 208 215 217 220
307 313 319 323 325 330 333 338 343 348 353 356 357 356 357 359 355 349 348 346 348 345 340 337 293 261 252 261 271 253 243 221 193 183 191 200 204 215
297 303 308 315 317 321 324 329 333 338 345 351 353 354 355 356 358 357 354 355 355 354 352 346 326 190 202 211 228 272 213 202 206 229 234 219 186 178
290 294 299 306 308 313 318 323 327 331 337 343 348 351 352 355 357 357 357 358 359 7 17 38 72 142 174 217 217 211 187 194 200 187 238 228 212 208
Height
1512 1510 1508 1505 1503 1500 1497 1494 1491 1481 1475 1473 1471 1471 1468 1464 1462 1459 1457 1455 1454 1452 1450 1447 1446 1444 1441 1440 1439 1437 1441 1444 1450 1455 1460 1462 1464 1467
1507 1505 1503 1501 1498 1495 1492 1488 1485 1479 1468 1469 1464 1462 1460 1456 1454 1452 1451 1449 1447 1446 1445 1443 1442 1441 1440 1436 1434 1435 1437 1441 1445 1447 1455 1456 1459 1462
1502 1500 1498 1495 1491 1488 1485 1481 1477 1473 1466 1458 1458 1456 1452 1449 1447 1445 1444 1443 1442 1440 1439 1438 1437 1436 1436 1435 1433 1432 1434 1436 1439 1443 1450 1450 1454 1457
1497 1495 1492 1488 1484 1481 1478 1474 1470 1467 1462 1454 1451 1449 1447 1443 1440 1438 1437 1437 1436 1434 1433 1432 1432 1432 1431 1431 1430 1429 1429 1432 1435 1442 1445 1445 1448 1452
1492 1489 1485 1481 1477 1474 1470 1466 1463 1459 1456 1451 1443 1443 1440 1437 1434 1432 1431 1430 1430 1428 1427 1426 1426 1426 1426 1426 1426 1426 1426 1429 1432 1433 1436 1438 1442 1447
1487 1482 1477 1473 1470 1466 1462 1459 1455 1452 1449 1445 1440 1436 1434 1431 1429 1427 1425 1424 1424 1423 1421 1421 1420 1420 1420 1421 1422 1422 1422 1422 1425 1429 1428 1431 1434 1441
1480 1475 1470 1466 1461 1457 1455 1452 1449 1446 1442 1439 1435 1431 1429 1426 1425 1423 1420 1419 1418 1418 1417 1417 1416 1416 1417 1417 1418 1418 1419 1420 1423 1423 1422 1424 1428 1432
1473 1468 1463 1459 1455 1451 1448 1445 1443 1440 1437 1434 1430 1427 1424 1422 1420 1418 1416 1415 1414 1414 1413 1413 1412 1413 1413 1413 1413 1414 1415 1416 1419 1421 1421 1423 1425 1430
1468 1462 1457 1455 1451 1447 1444 1441 1438 1434 1431 1428 1424 1421 1418 1417 1416 1413 1412 1410 1409 1410 1409 1408 1409 1408 1408 1409 1410 1410 1412 1414 1416 1419 1422 1424 1426 1428
1463 1458 1454 1450 1447 1443 1440 1437 1433 1429 1425 1422 1418 1415 1413 1411 1410 1408 1407 1405 1404 1404 1404 1403 1404 1403 1403 1404 1404 1407 1409 1411 1414 1417 1420 1423 1427 1430
1459 1455 1451 1447 1443 1440 1436 1431 1427 1424 1420 1417 1413 1409 1406 1404 1403 1402 1401 1401 1399 1399 1399 1399 1400 1400 1400 1399 1400 1402 1406 1408 1412 1415 1418 1421 1424 1429
1456 1452 1447 1443 1439 1436 1432 1427 1423 1420 1416 1411 1408 1405 1402 1399 1397 1396 1395 1396 1396 1395 1396 1397 1397 1397 1396 1394 1395 1397 1400 1403 1408 1411 1415 1418 1422 1425
1453 1448 1444 1439 1436 1432 1428 1425 1421 1416 1412 1408 1404 1402 1399 1397 1394 1392 1391 1390 1390 1390 1393 1393 1393 1393 1393 1393 1392 1393 1395 1398 1402 1406 1410 1414 1418 1421
1450 1446 1441 1436 1432 1428 1425 1421 1417 1414 1410 1406 1402 1399 1396 1393 1390 1388 1387 1386 1385 1385 1386 1387 1388 1389 1390 1390 1391 1391 1391 1392 1395 1399 1403 1408 1412 1415
1448 1443 1438 1434 1430 1426 1422 1418 1415 1411 1408 1404 1401 1397 1394 1391 1388 1385 1382 1381 1381 1381 1382 1383 1384 1385 1387 1388 1389 1389 1390 1391 1392 1394 1398 1402 1405 1409
1445 1441 1437 1432 1428 1425 1421 1417 1413 1409 1406 1403 1400 1397 1394 1391 1388 1384 1381 1380 1379 1379 1378 1379 1380 1382 1383 1385 1386 1388 1388 1390 1391 1393 1396 1399 1401 1403
1442 1439 1435 1432 1428 1424 1421 1417 1413 1409 1406 1403 1400 1397 1394 1391 1388 1386 1383 1381 1379 1378 1378 1378 1378 1379 1381 1383 1384 1385 1386 1388 1390 1391 1393 1395 1397 1398
1440 1437 1433 1430 1427 1423 1420 1416 1413 1409 1406 1403 1400 1397 1394 1392 1389 1387 1385 1383 1381 1380 1378 1377 1378 1379 1380 1381 1382 1384 1385 1386 1388 1389 1391 1393 1396 1397
1438 1435 1431 1428 1425 1422 1419 1416 1412 1409 1406 1402 1400 1397 1395 1392 1390 1388 1386 1384 1383 1381 1380 1379 1378 1378 1380 1380 1381 1382 1384 1384 1384 1386 1388 1390 1393 1395
1435 1432 1429 1426 1424 1421 1418 1415 1412 1409 1406 1403 1400 1397 1394 1392 1390 1388 1386 1384 1383 1382 1381 1380 1379 1379 1380 1381 1381 1382 1382 1383 1384 1385 1386 1387 1389 1390
1432 1429 1426 1424 1421 1419 1417 1414 1411 1408 1405 1402 1400 1397 1394 1392 1390 1388 1387 1385 1383 1381 1380 1379 1379 1379 1379 1380 1381 1381 1381 1382 1383 1384 1385 1386 1387 1387
1428 1425 1423 1421 1419 1417 1414 1412 1409 1407 1404 1402 1399 1397 1394 1392 1389 1388 1386 1384 1382 1380 1379 1378 1378 1378 1379 1380 1380 1380 1380 1381 1382 1382 1383 1384 1385 1386
1423 1421 1419 1417 1416 1414 1412 1410 1407 1405 1403 1400 1398 1396 1394 1391 1389 1387 1385 1384 1382 1380 1378 1378 1377 1377 1378 1378 1378 1379 1379 1380 1380 1381 1382 1382 1382 1383